This is the latest recevied weather packets stored in our database for station/object OE-11373. If no packets are shown the sender has not sent any weather packets the latest 10 day(s).
| Time | Temp. | Humidity | Pressure | Rain* | Wind** | Luminosity | Snow |
|---|---|---|---|---|---|---|---|
| 1788127888 | 17.78° C | 70% | 852.7 hPa | - | - | - | - |
| 1788127514 | 17.78° C | 70% | 852.7 hPa | - | - | - | - |
| 1788126914 | 17.78° C | 70% | 852.7 hPa | - | - | - | - |
| 1788126088 | 17.78° C | 70% | 852.7 hPa | - | - | - | - |
| 1788125714 | 17.78° C | 72% | 852.8 hPa | - | - | - | - |
| 1788125114 | 17.78° C | 72% | 853 hPa | - | - | - | - |
| 1788124525 | 18.33° C | 68% | 853 hPa | - | - | - | - |
| 1788123913 | 18.33° C | 65% | 853.1 hPa | - | - | - | - |
| 1788123314 | 18.33° C | 65% | 853.2 hPa | - | - | - | - |
| 1788122487 | 18.33° C | 66% | 853.1 hPa | - | - | - | - |
| 1788122113 | 17.78° C | 69% | 853 hPa | - | - | - | - |
| 1788121513 | 18.33° C | 68% | 852.7 hPa | - | - | - | - |
| 1788120687 | 18.33° C | 68% | 852.8 hPa | - | - | - | - |
| 1788120314 | 18.33° C | 68% | 852.9 hPa | - | - | - | - |
| 1788119714 | 17.78° C | 70% | 852.7 hPa | - | - | - | - |
| 1788118887 | 18.33° C | 68% | 852.8 hPa | - | - | - | - |
| 1788118514 | 18.89° C | 67% | 852.7 hPa | - | - | - | - |
| 1788117914 | 18.33° C | 68% | 852.6 hPa | - | - | - | - |
| 1788117086 | 18.33° C | 67% | 852.7 hPa | - | - | - | - |
| 1788116713 | 18.33° C | 68% | 852.7 hPa | - | - | - | - |
| 1788116113 | 18.33° C | 68% | 852.6 hPa | - | - | - | - |
| 1788115286 | 18.33° C | 66% | 852.5 hPa | - | - | - | - |
| 1788114912 | 18.33° C | 66% | 852.4 hPa | - | - | - | - |
| 1788114313 | 18.33° C | 65% | 852.4 hPa | - | - | - | - |
| 1788113486 | 18.33° C | 65% | 852.3 hPa | - | - | - | - |
* Rain since midnight (hover to see other rain measurements)
** Current wind speed in m/s (hover to see current wind gust speed)